Location: D.A.R.C. Observatory
(36.7133°N, 120.8553°W)
Time: 12:00:57
(UTC-08:00)

Daily predictions for brighter satellites

Satellite Brightness Start Highest point End
(mag) Time Altitude Azimuth Time Altitude Azimuth Time Altitude Azimuth
Cosmos 2151 4.3 17:41:55 10° SE 17:45:07 21° E 17:48:21 10° NE
Landsat 4 4.4 17:45:42 10° NNE 17:49:06 33° E 17:52:29 10° SSE
EO 1 Del DPAF 4.3 17:46:46 10° NE 17:50:00 25° E 17:53:12 10° SSE
MTI 4.5 17:47:29 10° NNE 17:50:26 33° E 17:53:20 10° SSE
ERS-2 3.7 17:49:55 10° ESE 17:52:12 16° ENE 17:54:31 10° NNE
Cosmos 1328 3.8 17:48:58 10° S 17:52:58 85° E 17:57:01 10° N
SL-24 R/B - RUBIN 2 3.5 17:48:54 10° NNW 17:53:20 68° ENE 17:57:36 10° SE
ALOS 2.7 17:49:31 10° SE 17:53:49 38° ENE 17:58:08 10° N
CORIOLIS 4.3 17:48:38 10° S 17:53:58 81° WSW 17:59:20 10° NNW
Cosmos 1656 Rocket 3.6 17:49:53 10° NNW 17:55:22 68° ENE 18:00:53 10° SSE
Cosmos 332 Rocket 4.3 17:52:57 10° S 17:57:30 40° ESE 18:02:06 10° NNE
Tiangong 1 0.4 17:56:13 10° WNW 17:58:40 63° NNE 18:01:06 10° ESE
Cosmos 1408 Rocket 3.4 17:56:17 10° S 18:00:34 79° E 18:04:52 10° N
Cosmos 1300 3.5 17:57:27 10° NNW 18:01:13 56° W 18:04:56 10° S
Cosmos 864 Rocket 4.5 17:55:03 10° N 18:01:24 75° E 18:07:40 10° SSE
Cosmos 1515 Rocket 4.3 18:01:10 10° NNE 18:04:57 28° ENE 18:08:41 10° SE
Cosmos 1340 4.4 18:04:31 10° NE 18:06:25 13° ENE 18:06:36 13° ENE
Cosmos 1777 Rocket 3.9 18:02:49 10° NNW 18:08:04 74° ENE 18:13:19 10° SSE
Cosmos 1943 Rocket 4.0 18:03:50 10° NW 18:08:50 35° WSW 18:13:47 10° SSW
Cosmos 1703 3.3 18:05:25 10° S 18:09:17 56° E 18:13:12 10° NNE
OAO 3 Rocket 3.8 18:07:19 10° W 18:11:52 53° SSW 18:16:27 10° ESE
CZ-4C R/B 3.2 18:10:10 10° SSE 18:13:58 22° ESE 18:16:36 15° ENE
Cosmos 1500 Rocket 4.0 18:10:27 10° SSE 18:14:36 39° E 18:18:46 10° NNE
IRS-1A Rocket 4.4 18:10:45 10° S 18:16:17 79° WSW 18:21:56 10° NNW
COSMO-SKYMED 1 2.7 18:12:11 10° N 18:16:32 80° WNW 18:20:52 10° SSW
SPOT 3 Rocket 3.6 18:11:37 10° SSE 18:16:35 52° ENE 18:21:35 10° N
Cosmos 909 Rocket 4.5 18:10:49 10° NNW 18:17:07 41° NE 18:22:57 10° ESE
Lacrosse 5 2.8 18:12:45 10° S 18:17:10 30° ESE 18:20:10 17° ENE
ASTRO E2 3.8 18:19:16 10° WSW 18:22:58 38° S 18:26:02 14° ESE
FENGYUN 3A 3.6 18:21:05 10° SSE 18:26:25 82° ENE 18:31:49 10° N
USA 81 4.1 18:23:24 10° SSE 18:28:32 55° E 18:33:40 10° NNE
MOS 1 4.3 18:23:50 10° SSE 18:29:29 89° ENE 18:35:09 10° NNW
Cosmos 1743 Rocket 3.4 18:25:39 10° S 18:30:00 80° E 18:34:21 10° N
Cosmos 2208 Rocket 4.1 18:27:21 10° S 18:32:28 56° ESE 18:37:42 10° NNE
Cosmos 1328 Rocket 3.5 18:29:37 10° N 18:34:00 86° W 18:38:18 10° S
Cosmos 468 Rocket 4.5 18:29:24 10° SSE 18:34:02 36° E 18:36:47 21° NE
ISS -2.7 18:33:30 10° SSW 18:36:18 27° SE 18:36:33 26° ESE
TIMED 4.4 18:33:23 10° NNW 18:37:46 79° ENE 18:42:07 10° SSE
Cosmos 1898 Rocket 4.3 18:34:13 10° N 18:38:45 28° ENE 18:39:47 26° E
Cosmos 2228 Rocket 3.0 18:34:45 10° N 18:39:21 80° E 18:43:56 10° S
Cosmos 371 Rocket 3.4 18:36:59 10° SSW 18:41:47 78° WNW 18:46:38 10° NNE
Cosmos 1763 Rocket 4.4 18:42:48 10° SSE 18:46:44 27° ESE 18:46:44 27° ESE
Cosmos 2082 Rocket 3.2 18:44:28 10° SSE 18:48:39 25° ESE 18:48:39 25° ESE
Cosmos 2058 3.6 18:47:00 10° SSW 18:51:05 54° W 18:55:13 10° N
NOSS 3-4 (A) 4.5 18:46:01 10° NW 18:53:03 60° WSW 19:00:33 10° SSE
H-2A R/B 2.6 18:49:22 10° SSE 18:53:09 79° ENE 18:57:02 10° N
NOSS 3-4 (C) 4.4 18:46:07 10° NW 18:53:10 60° WSW 19:00:41 10° SSE
SEDSat Delta rocket 4.4 18:49:16 10° WSW 18:55:52 55° S 18:59:14 27° ESE
Meteor 2-15 Rocket 4.3 18:51:02 10° S 18:57:08 75° E 19:03:14 10° N
Cosmos 1455 2.8 18:54:31 10° NNW 18:58:16 56° W 19:01:59 10° S
Cosmos 1151 Rocket 3.4 18:57:53 10° NNW 19:02:15 66° W 19:06:34 10° S
Cosmos 1570 Rocket 4.4 18:58:59 10° SSW 19:04:15 64° WNW 19:09:25 10° N
SL-27 R/B 2.4 19:05:05 10° SSW 19:08:22 77° WSW 19:08:22 77° WSW
GEOS 3 Rocket 4.4 19:09:21 33° NNE 19:09:21 33° NNE 19:13:34 10° NNW
Hubble Space Telescope 2.7 19:06:49 10° SSW 19:09:41 18° SSE 19:09:42 18° SSE
Cosmos 1805 Rocket 4.4 19:05:38 10° S 19:08:22 35° SSE 19:08:22 35° SSE
Cosmos 1833 Rocket 3.0 19:06:04 10° S 19:10:53 42° ESE 19:10:53 42° ESE
Cosmos 2369 4.3 19:12:20 10° N 19:16:32 38° NNE 19:16:32 38° NNE
Cosmos 1821 Rocket 4.1 19:14:18 10° N 19:20:28 73° W 19:26:42 10° S
Cosmos 1535 Rocket 4.4 19:16:08 10° N 19:22:17 83° W 19:28:22 10° S
ERS-2 4.2 19:22:25 10° SSW 19:25:36 28° W 19:28:50 10° NW
Cosmos 304 Rocket 3.8 19:26:19 10° SSW 19:31:05 75° WNW 19:31:21 72° NW
Thor Agena Rocket 3.9 19:33:30 26° N 19:36:25 64° WNW 19:41:32 10° SSW
Cosmos 1339 Rocket 4.5 19:30:52 10° S 19:36:02 61° SE 19:36:02 61° SE
Cosmos 1340 4.4 19:38:48 10° NNW 19:45:22 11° SSW 19:45:31 10° SSW
Lacrosse 5 3.1 19:55:14 10° WSW 19:59:25 38° WNW 19:59:25 38° WNW
CZ-4C R/B 3.0 19:57:03 10° WSW 20:01:51 44° NW 20:01:51 44° NW
Cosmos 1605 Rocket 4.2 19:57:06 10° NNW 20:09:17 - S 20:02:40 64° WNW
Cosmos 2082 Rocket 3.9 20:27:34 10° SW 20:30:36 28° WSW 20:30:36 28° WSW
